www.pogodaiklimat.ru

Погода и климат >> Архив погоды >> Мексика >> Hidalgo del Parral


ПОГОДА в Hidalgo del Parral

  • Прогноз погоды в Hidalgo del Parral
  • Монитор погоды в Hidalgo del Parral
  • Климат города

АРХИВ ПОГОДЫ в Hidalgo del Parral

Время (UTC), дата Ветер
(напр.,м/с)
 
Видим.   Явления Облачность Т
(С)
Тd
(С)
f
(%)
Тe
(С)
Тes
(С)
Комфортность P
(гПа)
Po
(гПа)
Тmin
(С)
Tmax
(С)
R
(мм)
R24
(мм)
S
(см)
12 17.04 СЗ 2 1000 м ясно +16.6 +0.4 33 +17 +17 1013.2 827.0 +15.9 +33.4
15 17.04 С 1 10 км ясно +19.0 +4.9 39 +20 +28 1016.4 828.2
18 17.04 С 2 10 км ясно +28.4 -1.0 15 +26 +45 жарко 1014.9 827.6 +13.4 +28.8
21 17.04 СЗ 3 10 км 1/0
[Ac trans]
+31.8 -2.6 11 +28 +41 жарко 1010.0 825.4
00 18.04 СЗ 3 10 км ясно +30.4 -5.5 9 +27 +29 жарко 1005.6 823.8 +13.4 +32.8
03 18.04 СЗ 2 1000 м ясно +23.8 -5.7 14 +22 +22 комфорт 1006.1 825.5
06 18.04 СЗ 2 1000 м ясно +20.2 -7.9 14 +20 +20 1008.8 827.1 +13.4 +32.8
09 18.04 СЗ 3 1000 м ясно +17.2 -8.2 17 +17 +17 1010.4 826.6
12 18.04 СЗ 1 1000 м ясно +15.3 -3.8 27 +16 +16 1013.9 827.3 +14.6 +32.8
15 18.04 СЗ 1 10 км 1/0
[Ci fib]
+20.2 -5.4 17 +21 +28 комфорт 1017.3 828.8
18 18.04 С 2 10 км 3/0
[Ci fib]
+28.0 -2.7 13 +25 +43 комфорт 1016.3 828.6 +13.0 +28.2
21 18.04 С 3 10 км 1/0
[]
+30.8 -3.6 11 +27 +40 жарко 1013.0 827.6
00 19.04 С 3 10 км 1/0
[Ci fib]
+30.0 -4.0 11 +27 +29 жарко 1008.5 825.9 +13.0 +31.4
03 19.04 ЮВ 2 10 км ясно +23.2 -5.5 14 +21 +21 комфорт 1007.5 826.3
12 19.04 СЗ 1 1000 м ясно +12.6 -3.2 33 +13 +13 1017.2 828.6 +12.6 +31.4
15 19.04 СЗ 3 10 км 4/0 2000 м
[Ac trans Ci fib]
+18.8 +10.2 57 +20 +24 1019.6 829.3
18 19.04 З 3 10 км 1/0
[Cs]
+26.2 +9.1 34 +27 +42 жарко 1017.3 828.3 +11.4 +26.8
21 19.04 ЮЗ 3 10 км 5/0 2000 м
[Ac trans Cs]
+30.4 +7.0 23 +29 +40 жарко 1011.4 825.7
00 20.04 СЗ 1 10 км {дождь} 8/3 600 м
[Cu med, cong As trans]
+28.8 +8.7 28 +28 +30 жарко 1006.3 823.8 0.0
03 20.04 ЮВ 2 1000 м гроза без осадков 8/3 1500 м
[Cb cap Cs]
+23.4 +9.0 40 +25 +25 комфорт 1006.0 824.6
12 20.04 З 2 1000 м 8/8 600 м
[Sc]
+16.8 +11.4 70 +17 +17 1011.3 825.5 +14.6 +31.2
15 20.04 С 1 10 км 9/5 700 м
[Sc Cs]
+17.4 +11.8 70 +18 +21 1013.3 826.0
18 20.04 СЗ 1 10 км 9/0 2000 м
[Ac trans Cc]
+26.4 +3.8 23 +25 +40 комфорт 1012.9 825.8 +13.6 +27.0
21 20.04 СЗ 4 1000 м 4/0 2000 м
[Ac trans Cc]
+33.4 -0.9 11 +30 +39 жарко 1007.5 823.2
00 21.04 СЗ 5 10 км 5/0
[Ci fib]
+31.4 -1.1 12 +28 +29 жарко 1003.7 822.2 +13.6 +34.0
03 21.04 СЗ 3 1000 м 3/0
[Cc]
+24.6 -0.2 19 +23 +23 комфорт 1004.8 824.4
12 21.04 СЗ 1 1000 м 8/8 1500 м
[Sc]
+17.4 -3.7 23 +19 +19 1010.7 825.5 +16.8 +34.0
15 21.04 СЗ 2 10 км 6/4 1500 м
[Sc Ci fib]
+18.6 -4.2 21 +19 +23 1014.7 827.4
18 21.04 СЗ 2 10 км 1/0
[Ci sp]
+28.4 -0.9 15 +26 +45 жарко 1012.8 826.3 +16.0 +29.4
21 21.04 С 2 10 км 6/4 1500 м
[Sc diur, vesp Ac trans Ci sp]
+29.6 +0.8 16 +27 +35 жарко 1009.3 824.9
00 22.04 С 3 10 км 9/6 1500 м
[Sc diur, vesp Ac trans]
+26.6 -3.6 13 +24 +24 комфорт 1006.7 824.1 +16.0 +32.6
03 22.04 СВ 1 1000 м 3/0 2000 м
[Ac trans]
+21.0 -3.5 19 +22 +22 комфорт 1008.7 826.5
12 22.04 С 1 1000 м 5/1 1500 м
[Sc diur, vesp Cs]
+11.8 -6.0 28 +12 +12 1016.8 828.0 +11.0 +32.6
15 22.04 С 1 10 км 8/0 2000 м
[Ac trans Cs]
+16.4 -2.3 28 +17 +23 1019.7 828.9
18 22.04 ЮЗ 2 10 км 10/0
[Cs]
+27.2 -3.9 13 +24 +40 комфорт 1017.3 827.9 +10.0 +27.4
21 22.04 СЗ 3 10 км слабый дождь 10/8 1300 м
[Sc diur, vesp Cs]
+27.0 +2.0 20 +25 +28 комфорт 1013.4 826.4 0.0
00 23.04 СЗ 3 10 км {дождь} 10/8 300 м
[Sc diur, vesp Cs]
+25.0 +7.1 32 +25 +25 комфорт 1010.1 825.4 0.0
03 23.04 СЗ 2 1000 м 6/4 450 м
[Sc diur, vesp Ac trans]
+23.8 +5.5 31 +24 +24 комфорт 1009.3 826.3
06 23.04 СЗ 2 1000 м 5/5 360 м
[Sc]
+21.4 +3.8 31 +22 +22 комфорт 1010.7 827.1 +10.0 +28.8
09 23.04 СЗ 1 1000 м 1/1 1500 м
[Sc]
+18.6 +3.1 36 +20 +20 1012.1 827.3
12 23.04 СЗ 1 1000 м ясно +14.8 +0.4 37 +16 +16 1014.3 828.1 +14.0 +28.8
15 23.04 С 1 10 км ясно +18.4 +1.7 33 +20 +27 1017.6 829.2
18 23.04 СЗ 1 10 км 3/0
[Ci fib]
+27.8 -0.3 16 +25 +47 комфорт 1017.0 829.2 +12.0 +28.2
21 23.04 ЮЗ 3 10 км 3/0 2000 м
[Ac trans Ci fib]
+32.2 -2.3 11 +29 +41 жарко 1011.0 825.9
00 24.04 СЗ 4 10 км 4/0 2000 м
[Ac trans Cs]
+32.0 -0.5 12 +29 +30 жарко 1006.5 824.5 +12.0 +34.0
03 24.04 СЗ 1 1000 м ясно +24.2 +0.1 20 +23 +23 комфорт 1007.7 827.0
06 24.04 СЗ 1 1000 м ясно +18.6 -2.1 24 +20 +20 1010.3 828.3 +8.5 +34.0
09 24.04 СЗ 1 1000 м ясно +15.4 +12.0 80 +16 +16 827.6

 

Местоположение метеостанции Hidalgo del Parral (Мексика): широта 26.93 долгота -105.60 высота над уровнем моря 1661 м.

В архиве по умолчанию представлена погода в Hidalgo del Parral за последнюю неделю. Архивные данные за месяц целиком и за предыдущие месяцы, начиная с января 2011 года, Вы можете получить, выбрав интересующий диапазон дат из раскрывающегося списка и нажав кнопку "Ввод!".


*Определитесь, кто Вы:
робот инопланетянин человек

Внимание! Время в таблицах - всемирное. Для получения местного времени необходимо прибавить поправку, которая в Hidalgo del Parral равна -6 ч.

Смотрите также архив погоды в соседних городах и на ближайших метеорологических станциях:

Погода в Tepehuanes (Мексика) (177 км)
Погода в Chihuahua University (Мексика) (193 км)
Погода в Chihuahua (Мексика) (202 км)
Погода в Choix (Мексика) (259 км)
Погода в Torreon (Мексика) (269 км)
Погода в Culiacan (Мексика) (298 км)
Погода в Temosachic (Мексика) (312 км)
Погода в Durango (Мексика) (336 км)
Погода в Monclova (Мексика) (417 км)
Погода в Sombrerete (Мексика) (419 км)

Пояснения к столбцам:

Ветер - указаны скорость ветра в м/с - средняя за 10 мин, порывы в срок и между сроками (в фигурных скобках) и направление, откуда дует ветер: С - северный, СВ - северо-восточный, В - восточный, ЮВ - юго-восточный, Ю - южный, ЮЗ - юго-западный, З - западный, СЗ - северо-западный.
Видимость - горизонтальная дальность видимости в метрах или километрах. При видимости от 1 до 10 км при отсутствии осадков обычно наблюдается дымка, при ухудшении видимости до 1 км и менее - туман. В сухую погоду видимость может ухудшаться дымом, пылью или мглою.
Явления - указаны атмосферные явления, наблюдавшиеся в срок или в последний час перед сроком; фигурными скобками обозначены явления, наблюдавшиеся между сроками (за 1-3 часа до срока); квадратными скобками обозначены град или гололедные отложения с указанием их диаметра в мм.
Облачность - указаны через наклонную черту общая и нижняя облачность в баллах и высота нижней границы облаков в метрах; квадратными скобками обозначены формы облаков: Ci - перистые, Cs - перисто-слоистые, Cc - перисто-кучевые, Ac - высококучевые, As - высокослоистые, Sc - слоисто-кучевые, Ns - слоисто-дождевые, Cu - кучевые, Cb - кучево-дождевые. Подробнее классификацию облаков см. в Атласе облаков (PDF).
T - Температура воздуха - температура, измеренная на высоте 2 м над землей.
Td - Температура точки росы - температура, при понижении до которой содержащийся в воздухе водяной пар достигнет насыщения.
f - Относительная влажность воздуха - влажноcть воздуха, измеренная на высоте 2 м над землей.
Te - Эффективная температура - температура, которую ощущает одетый по сезону человек в тени. Характеристика душности погоды. При расчете учитывается влияние влажности воздуха и скорости ветра на теплоощущения человека.
Tes - Эффективная температура на солнце - температура, которую ощущает человек, с поправкой на солнечный нагрев. Характеристика знойности погоды. Зависит от высоты солнца над горизонтом, облачности и скорости ветра. Ночью, в пасмурную погоду, а также при ветре 12 м/с и более поправка равна нулю.
P - Атмосферное давление - приведенное к уровню моря атмосферное давление.
Po - Атмосферное давление - измеренное на уровне метеостанции атмосферное давление.
Tmin - Минимальная температура - минимум температуры воздуха на высоте 2 м над землей.
Tmax - Максимальная температура - максимум температуры воздуха на высоте 2 м над землей.
R - Количество осадков - Количество выпавших осадков за период времени, мм. При наведении курсора мыши на число - период времени, за который выпало указанное количество осадков.
R24 - Количество осадков - Количество выпавших осадков за 24 часа, мм.
S - Снежный покров - Высота снежного покрова, см. При наведении курсора мыши на число - состояние снежного покрова и степень покрытия местности в баллах.